Weather History for Indiana, PA

Change the Weather History Date:

Thursday, January 10, 2013

  Actual Average Record
Temperature  
Mean Temperature 32 °F -  
Max Temperature 41 °F 32 °F 59 °F (1950)
Min Temperature 24 °F 17 °F -8 °F (1982)
Degree Days  
Heating Degree Days 32    
Moisture  
Dew Point 29 °F    
Average Humidity 78    
Maximum Humidity 100    
Minimum Humidity 53    
Precipitation  
Precipitation 0.00 in - - ()
Sea Level Pressure  
Sea Level Pressure 30.48 in    
Wind  
Wind Speed 4 mph (ESE)    
Max Wind Speed 13 mph    
Max Gust Speed 18 mph    
Visibility 10 miles    
Events      
Averages and records for this station are not official NWS values.
T = Trace of Precipitation, MM = Missing Value Source: NWS Daily Summary

Daily Weather History Graph

Daily Weather History Graph

Search for Another Location

Airport:

Trip Planner

Search our weather history database for the weather conditions in past years. The results will help you decide how hot, cold, wet, or windy it might be!

Date:

Astronomy

Jan. 10, 2013 Rise Set
Actual Time 7:39 AM EST 5:08 PM EST
Civil Twilight 7:09 AM EST 5:39 PM EST
Nautical Twilight 6:35 AM EST 6:13 PM EST
Astronomical Twilight 6:02 AM EST 6:46 PM EST
Moon 6:17 AM EST (1/10) 4:14 PM EST (1/10)
Length of Visible Light 10h 29m
Length of Day
9h 29m
Waning Crescent, 2% of the Moon is Illuminated
Jan 10
Waning Crescent
Jan 11
New
Jan 18
First Quarter
Jan 26
Full
Feb 3
Last Quarter

Hourly Weather History & Observations

Time (EST) Temp. Windchill Dew Point Humidity Pressure Visibility Wind Dir Wind Speed Gust Speed Precip Events Conditions
12:15 AM 37.4 °F 30.8 °F 30.2 °F 75% 30.44 in 10.0 mi West 9.2 mph - N/A   Unknown
12:35 AM 37.4 °F 29.3 °F 30.2 °F 75% 30.45 in 10.0 mi West 12.7 mph 18.4 mph N/A   Unknown
12:55 AM 37.4 °F 30.3 °F 30.2 °F 75% 30.45 in 10.0 mi West 10.4 mph - N/A   Unknown
1:15 AM 35.6 °F 29.2 °F 30.2 °F 81% 30.46 in 10.0 mi West 8.1 mph - N/A   Unknown
1:35 AM 35.6 °F 28.6 °F 30.2 °F 81% 30.47 in 10.0 mi West 9.2 mph - N/A   Unknown
1:55 AM 35.6 °F 29.9 °F 30.2 °F 81% 30.47 in 10.0 mi West 6.9 mph - N/A   Unknown
3:15 AM 33.8 °F 29.6 °F 30.2 °F 87% 30.48 in 10.0 mi WNW 4.6 mph - N/A   Unknown
3:35 AM 33.8 °F 30.8 °F 30.2 °F 87% 30.48 in 10.0 mi West 3.5 mph - N/A   Unknown
3:55 AM 32.0 °F 28.7 °F 30.2 °F 93% 30.48 in 10.0 mi West 3.5 mph - N/A   Unknown
4:15 AM 30.2 °F 25.4 °F 30.2 °F 100% 30.47 in 10.0 mi West 4.6 mph - N/A   Unknown
4:35 AM 30.2 °F 25.4 °F 30.2 °F 100% 30.48 in 10.0 mi West 4.6 mph - N/A   Unknown
4:55 AM 30.2 °F 25.4 °F 30.2 °F 100% 30.48 in 10.0 mi WNW 4.6 mph - N/A   Unknown
5:15 AM 30.2 °F - 30.2 °F 100% 30.48 in 10.0 mi Calm Calm - N/A   Unknown
5:35 AM 28.4 °F - 28.4 °F 100% 30.49 in 10.0 mi Calm Calm - N/A   Unknown
5:55 AM 28.4 °F - 28.4 °F 100% 30.50 in 10.0 mi Calm Calm - N/A   Unknown
6:15 AM 26.6 °F - 26.6 °F 100% 30.50 in 10.0 mi Calm Calm - N/A   Unknown
6:35 AM 26.6 °F - 26.6 °F 100% 30.52 in 10.0 mi Calm Calm - N/A   Unknown
6:55 AM 24.8 °F - 24.8 °F 100% 30.53 in 10.0 mi Calm Calm - N/A   Unknown
7:35 AM 24.8 °F - 24.8 °F 100% 30.54 in 7.0 mi Calm Calm - N/A   Unknown
7:55 AM 24.8 °F - 24.8 °F 100% 30.55 in 5.0 mi Calm Calm - N/A   Unknown
8:15 AM 24.8 °F - 24.8 °F 100% 30.55 in 7.0 mi Calm Calm - N/A   Unknown
8:35 AM 24.8 °F - 24.8 °F 100% 30.56 in 5.0 mi Calm Calm - N/A   Unknown
8:55 AM 26.6 °F - 26.6 °F 100% 30.57 in 7.0 mi Calm Calm - N/A   Unknown
9:15 AM 26.6 °F - 26.6 °F 100% 30.57 in 7.0 mi Calm Calm - N/A   Unknown
9:35 AM 30.2 °F - 30.2 °F 100% 30.58 in 7.0 mi Calm Calm - N/A   Unknown
9:55 AM 33.8 °F - 30.2 °F 87% 30.58 in 10.0 mi Calm Calm - N/A   Unknown
10:15 AM 35.6 °F - 30.2 °F 81% 30.58 in 10.0 mi Calm Calm - N/A   Unknown
10:35 AM 35.6 °F 32.8 °F 30.2 °F 81% 30.58 in 10.0 mi ENE 3.5 mph - N/A   Unknown
10:55 AM 37.4 °F - 30.2 °F 75% 30.58 in 10.0 mi Calm Calm - N/A   Unknown
11:15 AM 37.4 °F - 30.2 °F 75% 30.57 in 10.0 mi Calm Calm - N/A   Unknown
11:35 AM 37.4 °F - 28.4 °F 70% 30.56 in 10.0 mi Calm Calm - N/A   Unknown
11:55 AM 39.2 °F - 30.2 °F 70% 30.54 in 10.0 mi Calm Calm - N/A   Unknown
12:15 PM 37.4 °F - 28.4 °F 70% 30.53 in 10.0 mi Calm Calm - N/A   Unknown
12:35 PM 37.4 °F - 30.2 °F 75% 30.53 in 10.0 mi Calm Calm - N/A   Unknown
12:55 PM 37.4 °F - 30.2 °F 75% 30.53 in 10.0 mi Calm Calm - N/A   Unknown
1:15 PM 39.2 °F - 28.4 °F 65% 30.52 in 10.0 mi Calm Calm - N/A   Unknown
1:35 PM 39.2 °F - 28.4 °F 65% 30.52 in 10.0 mi Calm Calm - N/A   Unknown
1:55 PM 39.2 °F - 28.4 °F 65% 30.52 in 10.0 mi Calm Calm - N/A   Unknown
2:15 PM 37.4 °F - 30.2 °F 75% 30.52 in 10.0 mi Calm Calm - N/A   Unknown
2:35 PM 39.2 °F - 28.4 °F 65% 30.51 in 10.0 mi Calm Calm - N/A   Unknown
2:55 PM 39.2 °F - 28.4 °F 65% 30.50 in 10.0 mi Calm Calm - N/A   Unknown
3:15 PM 39.2 °F - 28.4 °F 65% 30.50 in 10.0 mi Calm Calm - N/A   Unknown
3:35 PM 39.2 °F - 28.4 °F 65% 30.49 in 10.0 mi Calm Calm - N/A   Unknown
3:55 PM 39.2 °F - 28.4 °F 65% 30.48 in 10.0 mi Calm Calm - N/A   Unknown
4:15 PM 39.2 °F - 28.4 °F 65% 30.48 in 10.0 mi Calm Calm - N/A   Unknown
4:35 PM 37.4 °F - 28.4 °F 70% 30.48 in 10.0 mi Calm Calm - N/A   Unknown
4:55 PM 37.4 °F - 30.2 °F 75% 30.47 in 10.0 mi Calm Calm - N/A   Unknown
5:15 PM 37.4 °F - 28.4 °F 70% 30.47 in 10.0 mi Calm Calm - N/A   Unknown
5:35 PM 35.6 °F - 30.2 °F 81% 30.46 in 10.0 mi Calm Calm - N/A   Unknown
5:55 PM 35.6 °F - 28.4 °F 75% 30.46 in 10.0 mi Calm Calm - N/A   Unknown
6:15 PM 33.8 °F - 30.2 °F 87% 30.46 in 10.0 mi Calm Calm - N/A   Unknown
6:35 PM 37.4 °F 33.8 °F 28.4 °F 70% 30.46 in 10.0 mi ESE 4.6 mph - N/A   Unknown
6:55 PM 37.4 °F 33.8 °F 28.4 °F 70% 30.44 in 10.0 mi East 4.6 mph - N/A   Unknown
7:15 PM 37.4 °F 33.8 °F 28.4 °F 70% 30.45 in 10.0 mi East 4.6 mph - N/A   Unknown
7:35 PM 37.4 °F - 28.4 °F 70% 30.44 in 10.0 mi Calm Calm - N/A   Unknown
7:55 PM 37.4 °F 32.1 °F 28.4 °F 70% 30.43 in 10.0 mi East 6.9 mph - N/A   Unknown
8:15 PM 37.4 °F 33.8 °F 28.4 °F 70% 30.43 in 10.0 mi East 4.6 mph - N/A   Unknown
8:35 PM 37.4 °F 33.8 °F 28.4 °F 70% 30.43 in 10.0 mi East 4.6 mph - N/A   Unknown
8:55 PM 37.4 °F 32.1 °F 28.4 °F 70% 30.41 in 10.0 mi East 6.9 mph - N/A   Unknown
9:15 PM 37.4 °F 31.4 °F 28.4 °F 70% 30.41 in 10.0 mi East 8.1 mph - N/A   Unknown
9:35 PM 37.4 °F 32.1 °F 28.4 °F 70% 30.40 in 10.0 mi East 6.9 mph - N/A   Unknown
9:55 PM 37.4 °F 32.1 °F 28.4 °F 70% 30.38 in 10.0 mi East 6.9 mph - N/A   Unknown
10:15 PM 39.2 °F 35.9 °F 26.6 °F 61% 30.38 in 10.0 mi East 4.6 mph - N/A   Unknown
10:35 PM 39.2 °F 34.2 °F 26.6 °F 61% 30.37 in 10.0 mi East 6.9 mph - N/A   Unknown
10:55 PM 39.2 °F 35.0 °F 26.6 °F 61% 30.36 in 10.0 mi ESE 5.8 mph - N/A   Unknown
11:15 PM 41.0 °F 35.2 °F 24.8 °F 53% 30.35 in 10.0 mi ESE 9.2 mph - N/A   Unknown
11:35 PM 41.0 °F 35.8 °F 26.6 °F 57% 30.34 in 10.0 mi ESE 8.1 mph - N/A   Unknown
11:55 PM 41.0 °F 34.7 °F 26.6 °F 57% 30.33 in 10.0 mi ESE 10.4 mph - N/A   Unknown